[[{"header":{"parameterUnit":"m.s-1","parameterCategory":1,"la1":30.2991,"la2":30.254,"lo1":-89.0895,"lo2":-89.0444,"dy":0.0017,"dx":0.0017,"nx":28,"ny":28,"refTime":"2024-04-15T09:00:00:Z","depth":0,"parameterNumber":2,"parameterNumberName":"U-component_of_WINDS"},"data":[0,0,0,0,0,0,0,0,0,0,0,0,0,0,0,0,0,0,0,0,0,0,0,0,0,0,0,0,0,0,0,0,0,0,0,0,0,0,0,0,0,0,0,0,0,0,0,0,0,0,0,0,0,0,0,0,0,0,-1.5255,-1.5255,0,-1.5311,-1.5312,-1.5312,-1.531,-1.5309,-1.5308,-1.5307,-1.5365,-1.5367,-1.5369,0,0,0,0,0,0,0,0,0,0,0,0,0,-1.5146,-1.5148,-1.5255,-1.5256,-1.5256,-1.5311,-1.5312,-1.5312,-1.531,-1.5309,-1.5308,-1.5307,-1.5364,-1.5367,-1.5369,0,0,0,0,0,0,0,0,0,0,0,0,0,-1.5197,-1.5149,-1.5255,-1.5262,-1.5263,-1.5311,-1.5312,-1.5313,-1.531,-1.5309,-1.5308,-1.5306,-1.5363,-1.5366,-1.537,-1.5414,0,0,-1.538,-1.5382,0,0,0,0,0,0,0,0,-1.5194,-1.5201,-1.526,-1.5261,-1.5263,-1.5302,-1.5294,-1.5347,-1.531,-1.5292,-1.5307,-1.5306,-1.5345,-1.535,-1.5363,-1.5417,-1.542,-1.538,-1.5382,-1.5384,-1.5385,0,0,0,0,0,0,0,-1.519,-1.5198,-1.5277,-1.5261,-1.5262,-1.5262,-1.5268,-1.5304,-1.5324,-1.5294,-1.5293,-1.53,-1.5345,-1.5359,-1.5364,-1.542,-1.538,-1.5383,-1.5385,-1.5387,-1.5516,-1.5517,0,0,0,0,0,0,-1.5185,-1.5195,-1.5275,-1.5279,-1.5225,-1.5265,-1.5271,-1.5291,-1.5324,-1.5328,-1.5301,-1.53,-1.5354,-1.536,-1.5366,-1.5422,-1.5384,-1.5387,-1.5389,-1.5514,-1.5516,-1.5517,0,0,0,0,0,0,-1.5183,-1.5193,-1.5273,-1.5237,-1.5247,-1.5268,-1.5289,-1.5292,-1.5306,-1.533,-1.5333,-1.5312,-1.5354,-1.5361,-1.5403,-1.5423,-1.5389,-1.5392,-1.5513,-1.5515,-1.5517,-1.5532,0,0,0,0,0,0,-1.518,-1.5192,-1.5209,-1.5238,-1.5249,-1.5309,-1.5291,-1.5294,-1.5312,-1.5311,-1.5341,-1.5345,-1.5353,-1.5398,-1.5406,-1.5427,-1.5394,-1.5511,-1.5513,-1.5516,-1.553,-1.5535,-1.5539,0,0,0,0,0,-1.5176,-1.5211,-1.521,-1.5219,-1.5271,-1.531,-1.5316,-1.5326,-1.5314,-1.5332,-1.5347,-1.5344,-1.542,-1.5402,-1.5411,-1.5434,-1.551,-1.5513,-1.5516,-1.5528,-1.5534,-1.5538,0,0,0,0,0,0,-1.5184,-1.5215,-1.5214,-1.5259,-1.5282,-1.5309,-1.5332,-1.5331,-1.5358,-1.5356,-1.5366,-1.5373,-1.5415,-1.5428,-1.5408,-1.548,-1.5463,-1.5468,-1.5469,-1.5475,-1.5479,-1.5475,-1.5397,0,0,0,0,0,-1.5191,-1.5219,-1.5245,-1.5282,-1.5294,-1.5311,-1.5328,-1.5333,-1.5357,-1.5367,-1.5385,-1.5409,-1.5438,-1.5457,-1.5485,-1.5532,-1.5539,-1.5552,-1.5556,-1.556,-1.5564,-1.5591,-1.5598,-1.5528,-1.5528,-1.5527,0,0,-1.5205,-1.5226,-1.5243,-1.5284,-1.5303,-1.5333,-1.5319,-1.5351,-1.5373,-1.5372,-1.5412,-1.5426,-1.5453,-1.5498,-1.5518,-1.5511,-1.5585,-1.5564,-1.5566,-1.5569,-1.5595,-1.5601,-1.5607,-1.553,-1.5529,-1.5529,0,0,-1.5247,-1.5265,-1.5299,-1.5318,-1.5346,-1.5357,-1.5365,-1.5393,-1.5402,-1.5443,-1.5443,-1.547,-1.552,-1.5539,-1.5556,-1.5606,-1.5605,-1.5615,-1.5638,-1.5663,-1.5669,-1.5674,-1.5693,-1.5699,-1.5619,-1.5619,-1.5619,0,-1.5262,-1.5307,-1.5316,-1.5349,-1.5367,-1.5367,-1.5401,-1.5419,-1.5455,-1.5468,-1.5459,-1.5522,-1.554,-1.559,-1.5602,-1.5615,-1.5625,-1.5612,-1.5667,-1.5672,-1.5677,-1.5695,-1.5702,-1.5621,-1.562,-1.562,-1.562,0,-1.5324,-1.5355,-1.5379,-1.5414,-1.5435,-1.5468,-1.5482,-1.5503,-1.5506,-1.5518,-1.556,-1.5582,-1.5615,-1.5627,-1.5631,-1.5678,-1.5672,-1.5665,-1.5649,-1.5685,-1.5702,-1.5709,-1.5622,-1.5622,-1.5621,-1.5621,0,0,-1.5373,-1.5413,-1.5421,-1.5437,-1.5469,-1.5493,-1.5526,-1.5559,-1.5576,-1.5601,-1.563,-1.5673,-1.5667,-1.5685,-1.5691,-1.5714,-1.5753,-1.5704,-1.5705,-1.5713,-1.5807,-1.5813,-1.582,-1.5752,-1.5753,-1.5755,-1.5805,0,-1.5419,-1.5478,-1.5487,-1.554,-1.5569,-1.557,-1.5599,-1.5622,-1.5634,-1.5661,-1.5675,-1.5705,-1.5694,-1.5706,-1.5728,-1.5744,-1.5772,-1.574,-1.5779,-1.5781,-1.5773,-1.5829,-1.5835,-1.5882,-1.5812,-1.5813,-1.5814,0,-1.548,-1.5507,-1.5562,-1.559,-1.5603,-1.5629,-1.566,-1.5685,-1.5711,-1.5719,-1.574,-1.5743,-1.5778,-1.576,-1.5809,-1.5787,-1.5804,-1.5814,-1.5816,-1.582,-1.58,-1.5836,-1.5897,-1.5904,-1.5824,-1.5823,-1.5822,0,-1.5511,-1.5561,-1.5601,-1.5615,-1.5648,-1.5666,-1.5681,-1.5706,-1.5725,-1.5752,-1.5765,-1.5795,-1.5812,-1.5836,-1.5848,-1.5833,-1.5896,-1.5879,-1.5904,-1.5904,-1.5917,-1.5917,-1.5982,-1.5927,-1.5927,-1.5927,-1.5927,0,-1.5562,-1.5596,-1.5615,-1.564,-1.5678,-1.5689,-1.5726,-1.5741,-1.5763,-1.579,-1.5793,-1.5818,-1.5832,-1.586,-1.5869,-1.5909,-1.5916,-1.5924,-1.5926,-1.5924,-1.5923,-1.5935,-1.5933,-1.5929,-1.5928,-1.5928,-1.5928,0,-1.5604,-1.5618,-1.5661,-1.5689,-1.5697,-1.5724,-1.5749,-1.5773,-1.5785,-1.582,-1.5829,-1.5848,-1.5881,-1.5895,-1.5936,-1.5942,-1.5988,-1.5987,-1.5979,-1.598,-1.6005,-1.6002,-1.6081,-1.6093,-1.6029,-1.603,-1.603,0,-1.5636,-1.5662,-1.5693,-1.5712,-1.5727,-1.5757,-1.5777,-1.5788,-1.5808,-1.584,-1.586,-1.5894,-1.5921,-1.5974,-1.5992,-1.6023,-1.6024,-1.6049,-1.6028,-1.6026,-1.6025,-1.6024,-1.6027,-1.6053,-1.6054,-1.6054,-1.6055,0,-1.5691,-1.5697,-1.5725,-1.5756,-1.578,-1.5804,-1.5829,-1.5844,-1.5859,-1.5882,-1.5916,-1.5937,-1.5979,-1.6012,-1.6044,-1.606,-1.606,-1.6061,-1.6069,-1.6067,-1.6062,-1.6066,-1.599,-1.6059,-1.6059,-1.6058,-1.6058,-1.6058,-1.573,-1.5753,-1.5779,-1.5811,-1.583,-1.5853,-1.5877,-1.5892,-1.5921,-1.5956,-1.5961,-1.5997,-1.6023,-1.6066,-1.6083,-1.6112,-1.6106,-1.6117,-1.6119,-1.6122,-1.6124,-1.6057,-1.6118,-1.6118,-1.6118,-1.6118,-1.6117,0,-1.5786,-1.5803,-1.5832,-1.5866,-1.5891,-1.5888,-1.5915,-1.5936,-1.5969,-1.5992,-1.6019,-1.6059,-1.6091,-1.6111,-1.6144,-1.6163,-1.6164,-1.6171,-1.6171,-1.6174,-1.6128,-1.6118,-1.617,-1.617,-1.617,-1.617,-1.617,-1.617,-1.5819,-1.5859,-1.5868,-1.5918,-1.5934,-1.597,-1.5986,-1.6007,-1.6026,-1.607,-1.6097,-1.611,-1.6132,-1.6167,-1.6196,-1.6202,-1.6214,-1.6222,-1.6227,-1.6183,-1.6177,-1.6172,-1.6163,-1.6224,-1.6224,-1.6271,-1.6271,-1.6272]},{"header":{"parameterUnit":"m.s-1","parameterCategory":1,"la1":30.2991,"la2":30.254,"lo1":-89.0895,"lo2":-89.0444,"dy":0.0017,"dx":0.0017,"nx":28,"ny":28,"refTime":"2024-04-15T09:00:00:Z","depth":0,"parameterNumber":3,"parameterNumberName":"V-component_of_WINDS"},"data":[0,0,0,0,0,0,0,0,0,0,0,0,0,0,0,0,0,0,0,0,0,0,0,0,0,0,0,0,0,0,0,0,0,0,0,0,0,0,0,0,0,0,0,0,0,0,0,0,0,0,0,0,0,0,0,0,0,0,3.0866,3.0868,0,3.1048,3.105,3.1052,3.1093,3.1092,3.1091,3.1089,3.1271,3.1277,3.1283,0,0,0,0,0,0,0,0,0,0,0,0,0,3.055,3.0556,3.0865,3.0868,3.087,3.1048,3.105,3.1052,3.1093,3.1092,3.109,3.1089,3.1269,3.1277,3.1284,0,0,0,0,0,0,0,0,0,0,0,0,0,3.0705,3.0558,3.0865,3.0912,3.0918,3.1047,3.105,3.1053,3.1094,3.1092,3.109,3.1088,3.1267,3.1276,3.1285,3.1379,0,0,3.1312,3.1316,0,0,0,0,0,0,0,0,3.0696,3.0717,3.0903,3.0909,3.0916,3.1046,3.1006,3.1162,3.1094,3.1027,3.1089,3.1087,3.1198,3.1212,3.1251,3.1387,3.1395,3.1313,3.1319,3.1323,3.1325,0,0,0,0,0,0,0,3.0686,3.0709,3.0937,3.0905,3.0913,3.0923,3.0943,3.1036,3.112,3.1032,3.1036,3.1057,3.1201,3.1242,3.1255,3.1398,3.1313,3.1321,3.1327,3.133,3.1623,3.1625,0,0,0,0,0,0,3.0667,3.07,3.0932,3.0943,3.0799,3.093,3.0953,3.1006,3.112,3.1135,3.1059,3.1058,3.1227,3.1244,3.1262,3.1381,3.1323,3.1331,3.1336,3.1621,3.1624,3.1626,0,0,0,0,0,0,3.066,3.0687,3.0924,3.0823,3.0853,3.0938,3.0997,3.1011,3.1052,3.114,3.1154,3.1085,3.1226,3.1249,3.135,3.1388,3.1335,3.1343,3.1618,3.1622,3.1625,3.1619,0,0,0,0,0,0,3.0651,3.0685,3.0722,3.0823,3.0859,3.1011,3.1,3.1015,3.1068,3.1069,3.1168,3.1183,3.1227,3.1337,3.1359,3.1399,3.135,3.1615,3.162,3.1624,3.1616,3.1622,3.1626,0,0,0,0,0,3.064,3.0711,3.0723,3.0751,3.0907,3.1013,3.1033,3.1083,3.107,3.1108,3.1165,3.118,3.138,3.1347,3.1372,3.1416,3.1613,3.1618,3.1623,3.1614,3.162,3.1626,0,0,0,0,0,0,3.061,3.0725,3.074,3.0847,3.092,3.1019,3.1069,3.1089,3.1166,3.1164,3.1222,3.1244,3.1342,3.1389,3.135,3.1514,3.1496,3.1506,3.1479,3.1487,3.1492,3.1478,3.1358,0,0,0,0,0,3.0616,3.0694,3.079,3.0875,3.0911,3.0983,3.1031,3.1064,3.1141,3.1172,3.1236,3.131,3.139,3.1441,3.1519,3.1623,3.1645,3.1665,3.1671,3.1674,3.1683,3.1743,3.1754,3.1644,3.1644,3.1643,0,0,3.0629,3.0702,3.0747,3.0871,3.0931,3.1009,3.1009,3.1091,3.115,3.1184,3.1285,3.1334,3.142,3.1524,3.1573,3.1566,3.1719,3.1681,3.1684,3.169,3.175,3.176,3.1769,3.1647,3.1646,3.1646,0,0,3.0694,3.0756,3.0835,3.0896,3.0988,3.1036,3.1055,3.1153,3.1188,3.129,3.1318,3.1388,3.1523,3.1584,3.1633,3.1722,3.1739,3.1746,3.1773,3.1831,3.184,3.1848,3.188,3.1891,3.1754,3.1754,3.1754,0,3.0698,3.0818,3.0872,3.0954,3.1008,3.1045,3.1125,3.1181,3.1294,3.133,3.1321,3.1494,3.1554,3.1674,3.1696,3.1733,3.1757,3.1735,3.1834,3.1843,3.1851,3.1883,3.1895,3.1754,3.1754,3.1754,3.1754,0,3.0819,3.0902,3.0954,3.1064,3.1124,3.1204,3.127,3.1324,3.1352,3.1401,3.1505,3.1579,3.1674,3.1705,3.1731,3.1828,3.1822,3.1823,3.1806,3.1861,3.1892,3.1905,3.1755,3.1755,3.1755,3.1754,0,0,3.0869,3.1009,3.1028,3.1079,3.1185,3.1249,3.1332,3.1426,3.1472,3.1548,3.1619,3.1734,3.1737,3.1792,3.1826,3.1877,3.1945,3.1873,3.1876,3.1884,3.2057,3.2056,3.207,3.1957,3.1959,3.1961,3.2051,0,3.0946,3.1096,3.1148,3.1272,3.135,3.1387,3.1459,3.1531,3.1579,3.1652,3.1704,3.1786,3.1783,3.1816,3.1868,3.1926,3.1981,3.192,3.2023,3.2026,3.2001,3.2086,3.2085,3.2165,3.2063,3.2065,3.2067,0,3.1057,3.1138,3.1269,3.1367,3.1402,3.1466,3.1558,3.1626,3.1709,3.1741,3.1804,3.1835,3.1922,3.1901,3.2022,3.198,3.2025,3.2059,3.2064,3.2075,3.205,3.21,3.2192,3.2204,3.2086,3.2084,3.2083,0,3.1081,3.1222,3.132,3.1363,3.1479,3.1523,3.1573,3.1655,3.1709,3.1789,3.1824,3.1912,3.1961,3.2028,3.2082,3.2061,3.2199,3.2181,3.2227,3.2226,3.2255,3.2252,3.2355,3.2283,3.2282,3.2282,3.2282,0,3.1163,3.1242,3.1333,3.1393,3.1484,3.1543,3.163,3.1682,3.1755,3.1825,3.1862,3.1927,3.1995,3.2069,3.2111,3.2206,3.2227,3.2255,3.2265,3.2252,3.2249,3.2283,3.2279,3.2285,3.2285,3.2284,3.2283,0,3.1205,3.1269,3.1379,3.148,3.1508,3.157,3.1657,3.1717,3.1767,3.1856,3.1881,3.196,3.2049,3.211,3.2223,3.2252,3.2355,3.2364,3.2328,3.2333,3.2376,3.2372,3.2505,3.2526,3.2438,3.2439,3.244,0,3.1253,3.1316,3.1425,3.1476,3.1527,3.1608,3.1664,3.1725,3.1782,3.1882,3.193,3.2022,3.2099,3.224,3.2307,3.2394,3.2406,3.2447,3.2419,3.2405,3.2408,3.2404,3.2411,3.2451,3.2452,3.2452,3.2453,0,3.1333,3.1362,3.1442,3.1534,3.16,3.1675,3.175,3.1789,3.1863,3.1925,3.2018,3.2078,3.2196,3.2287,3.2381,3.2432,3.2455,3.2461,3.2477,3.2464,3.2441,3.2455,3.234,3.2458,3.2457,3.2457,3.2457,3.2456,3.138,3.1438,3.1525,3.1613,3.1677,3.1747,3.1808,3.1868,3.1947,3.2049,3.2079,3.2176,3.2259,3.2388,3.2441,3.2517,3.2513,3.2535,3.2541,3.2546,3.2546,3.2428,3.2534,3.2534,3.2534,3.2534,3.2534,0,3.1462,3.152,3.1601,3.1706,3.1776,3.1794,3.1878,3.1935,3.202,3.2096,3.2172,3.228,3.2369,3.2444,3.2536,3.2582,3.2595,3.2605,3.2602,3.2614,3.2544,3.2522,3.2593,3.2593,3.2593,3.2593,3.2593,3.2593,3.1513,3.1613,3.1652,3.1784,3.1841,3.1938,3.1985,3.205,3.2111,3.223,3.2305,3.2354,3.2429,3.2528,3.261,3.263,3.2662,3.267,3.2691,3.2625,3.2618,3.2612,3.2591,3.2676,3.2676,3.2755,3.2756,3.2756]}]]